Other Public Products
Issued by NWS Grand Forks, ND

Home | Current Version | Previous Version | Graphics & Text | Print | Product List | Glossary On
Versions: 1 2 3 4 5 6 7 8 9 10 11 12 13 14 15 16 17 18 19 20 21 22 23 24 25 26 27 28 29 30 31 32 33 34 35 36 37 38 39 40 41 42 43 44 45 46 47 48 49 50
000
FPUS83 KFGF 180510
OPUFGF
PRAIRIE TO PINES WEATHER ROUNDUP
NATIONAL WEATHER SERVICE EASTERN NORTH DAKOTA/GRAND FORKS ND
1100 PM CST TUE JAN 17 2017

 **SATELLITE DATA USED TO AUGMENT SKY COVER AT AUTOMATED STATIONS**
 *****  WEATHER ACROSS EASTERN NORTH DAKOTA  *****

CITY           SKY/WX    TMP DP  RH WIND       PRES   REMARKS
GRAND FORKS    FAIR      22  15  75 S18       29.70F WCI   7
GRAND FORKS AF FAIR      27  18  69 SW14      29.69F WCI  15
GRAND CITY NWS NOT AVBL
BUXTON         NOT AVBL
DEVILS LAKE    FAIR      27  21  78 SW8       29.67S WCI  19
FARGO          FAIR      23  18  81 S13       29.79F WCI  11
WAHPETON ARPT  FAIR      18  14  86 SE10      29.86R WCI   6
$$

 *****  WEATHER ACROSS CENTRAL AND WESTERN NORTH DAKOTA  *****

CITY           SKY/WX    TMP DP  RH WIND       PRES   REMARKS
JAMESTOWN      FAIR      28  18  66 W16       29.73S WCI  16
BISMARCK       FAIR      28  20  71 SW8       29.76S WCI  20
MINOT          FAIR      37  26  64 SW13      29.65R
MINOT AFB      NOT AVBL
GARRISON         N/A     28  21  75 SW6       29.70S WCI  22
WILLISTON      FAIR      30  22  72 S8        29.72S WCI  22
DICKINSON      FAIR      31  21  66 W14       29.74S WCI  21
HETTINGER      FAIR      26  17  68 NW8       29.81F WCI  18
$$

 *****  OTHER OBSERVATIONS NORTHEAST NORTH DAKOTA  *****

CITY           SKY/WX    TMP DP  RH WIND       PRES   REMARKS
WALHALLA       NOT AVBL
LANGDON        NOT AVBL
CAVALIER         N/A     30  21  69 SW10      29.62R WCI  21
GRAFTON        FAIR      21  18  86 S13       29.67F WCI   9
CANDO          NOT AVBL
FORT TOTTEN      N/A     29  21  73 SW6       29.95S WCI  23
ROLLA            N/A    N/A N/A N/A MISG        N/A
RUGBY            N/A     25  21  86 SW13      29.64S WCI  13
 ***** THE ABOVE OBSERVATIONS ARE NON NWS ARE NOT QUALITY
        CONTROLLED AND MAY MIS-REPORT RAIN FOR SNOW...
$$

 *****  OTHER OBSERVATIONS SOUTHEAST NORTH DAKOTA *****

CITY           SKY/WX    TMP DP  RH WIND       PRES   REMARKS
COOPERSTOWN    FAIR      23  18  80 SW12      29.72S WCI  12
VALLEY CITY    FLURRIES  19  18  93 SW17      29.76S WCI   4
OAKES          NOT AVBL
GWINNER        FAIR      27  23  86 SW23      29.80F WCI  12
SHEYENNE NWR     N/A     25  18  73 SW10      29.95S WCI  15
BUFFALO        NOT AVBL
WYNDMERE       NOT AVBL
 ***** THE ABOVE OBSERVATIONS ARE NON NWS ARE NOT QUALITY
       CONTROLLED AND MAY MIS-REPORT RAIN FOR SNOW...
$$

  *****  WEATHER ACROSS NORTHERN MINNESOTA  *****

CITY           SKY/WX    TMP DP  RH WIND       PRES   REMARKS
FLAG ISLAND    FAIR      25  18  74 SW12      29.63R WCI  14
WARROAD        FAIR      25  19  80 SW16G24   29.64S WCI  12
ROSEAU         FAIR      27  19  74 S17       29.64S WCI  14
HALLOCK        FAIR      21  18  86 S14       29.65R WCI   8
THF RVR FALLS  FLURRIES  23  18  81 SW22G30   29.72F WCI   8
HALSTAD        NOT AVBL
FOSSTON        FAIR      23  18  80 S22       29.75F WCI   8
BAUDETTE       FAIR      28  18  66 S14G22    29.64F WCI  17
WASKISH        FAIR      28  21  74 S7        29.70F WCI  21
CROOKSTON      FAIR      21  18  86 SW24      29.74F WCI   4
$$
  *****  WEATHER ACROSS CENTRAL AND WEST MINNESOTA  *****

CITY           SKY/WX    TMP DP  RH WIND       PRES   REMARKS
BEMIDJI        FAIR      24  19  80 S7        29.76F WCI  16
PARK RAPIDS    FAIR      18  12  77 S10       29.81S WCI   6
WADENA         FAIR      19  16  86 SW8       29.85R WCI   9
DETROIT LAKES  FAIR      19  18  93 S6        29.81F WCI  11
MOORHEAD       FAIR      18  14  86 S13       29.81F WCI   4
FERGUS FALLS   FAIR      18  16  93 S12       29.90S WCI   5
ELBOW LAKE     FAIR      18  15  90 S10       29.86R WCI   6
MORRIS MN      FAIR      16  12  86 SE10      29.86F WCI   3
STAPLES        FAIR      16  12  86 S5        29.86R WCI   9
WHEATON        FAIR      27  25  93 SE9       29.87R WCI  17
$$
  *****  WEATHER ELSEWHERE ACROSS MINNESOTA  *****

CITY           SKY/WX    TMP DP  RH WIND       PRES   REMARKS
DULUTH         FAIR      26  20  77 SW14      29.84S WCI  14
INTRNTL FALLS  FAIR      28  19  69 S7        29.69F WCI  21
ELY            FAIR      25  16  68 SW6       29.78S WCI  18
CLOQUET        FAIR      25  21  86 SW8       29.86S WCI  16
BRAINERD       FAIR      19  15  84 S10       29.86F WCI   7
HIBBING        FAIR      20  13  74 VRB6      29.81S WCI  12
ALEXANDRIA     FAIR      20  17  88 S10       29.86F WCI   9
SAINT CLOUD    FAIR      19  18  95 S9        29.92F FOG     WCI   8
MINNEAPOLIS    CLOUDY    29  26  89 SW6       29.99F WCI  23
$$

  *****  WEATHER ACROSS SOUTH DAKOTA  *****

CITY           SKY/WX    TMP DP  RH WIND       PRES   REMARKS
SIOUX FALLS    FAIR      26  25  96 S7        29.96F WCI  18
BROOKINGS      FAIR      23  22  96 S12       29.90F WCI  12
WATERTOWN      FAIR      20  18  92 S7        29.86F WCI  11
HURON          FAIR      25  25 100 S12       29.88F WCI  14
SISSETON         N/A     34  25  69 S14G25    29.81F WCI  25
ABERDEEN       FAIR      15  11  83 S8        29.85F WCI   4
MITCHELL       FAIR      29  27  92 S9        29.92F WCI  20
PIERRE         FAIR      21  15  78 SW3       29.86F
MOBRIDGE       FAIR      17   9  70 SE9       29.80S WCI   6
RAPID CITY     FAIR      28  11  48 W3        29.86F
$$

  *****  SOME WEATHER IN NEARBY STATES *****

CITY           SKY/WX    TMP DP  RH WIND       PRES   REMARKS
GLASGOW MT     FAIR      26  21  81 E8        29.69S WCI  18
GREAT FALLS MT FAIR      36  22  56 SW23      29.71F
CHEYENNE WY    FAIR      30  12  47 W10       29.99F WCI  21
SCOTTSBLUFF NE FAIR      29  15  56 NW10      29.97F WCI  20
OMAHA NE       FAIR      28  23  81 SE8       30.09R FOG     WCI  20
DES MOINES IA  CLOUDY    32  30  92 W7        30.11R
DAVENPORT IA   CLOUDY    33  32  96 W10       30.08R FOG     WCI  25
CHICAGO IL     CLOUDY    35  33  92 W13       29.99S
EAU CLAIRE WI  FOG       31  31 100 SW8       29.98S VSB 1/4 WCI  23
LA CROSSE WI   CLOUDY    36  33  89 SW5       30.04R FOG
$$

  *****  SOME NATIONAL WEATHER *****

CITY           SKY/WX    TMP DP  RH WIND       PRES   REMARKS
LA GUARDIA NY  DRIZZLE   39  37  92 NE13      29.97F FOG
RALEIGH NC     MOCLDY    60  56  86 SW9       30.01F
ATLANTA GA     MOCLDY    65  57  75 SW12      30.13F
NEW ORLEANS LA FAIR      67  67 100 SE5       30.14F
OKLAHOMA CITY  CLOUDY    46  40  79 CALM      30.15S
ALBUQUERQUE NM FAIR      40  34  79 SE6       30.13R
SALT LAKE CITY FAIR      23  18  81 CALM      30.25S
LOS ANGELES CA FAIR      56  52  86 W12       30.14R
BOISE ID       FAIR       6   2  83 CALM      30.16F FOG
SEATTLE WA     LGT RAIN  45  44  97 SE5       29.52S FOG
$$

*** WEATHER ACROSS MANITOBA...SASKATCHEWAN AND ONTARIO ***
                ***ONTARIO***

CITY           SKY/WX    TMP DP  RH WIND       PRES   REMARKS
GERALDTON      MOCLDY    27  25  93 S10       29.71F WCI  17
THUNDER BAY    MOCLDY    14  14 100 VRB2      29.82S FOG
SIOUX LOOKOUT  PTCLDY    25  19  80 S8        29.59F WCI  16
TORONTO        LGT RAIN  34  32  93 VRB2      29.80S
BIG TROUT LK   MOCLDY    32  25  74 W13G23    29.31R WCI  22
PICKLE LAKE    NOT AVBL
DRYDEN         CLEAR     27  21  80 S13       29.60F WCI  16
KENORA         CLEAR     23  18  80 SW14G22   29.59R WCI  11
$$
                *** MANITOBA***

CITY           SKY/WX    TMP DP  RH WIND       PRES   REMARKS
BRANDON        CLEAR     25  19  80 W10       29.55R WCI  15
DAUPHIN        CLEAR     36  28  75 SW15      29.49S
ISLAND LAKE    PTCLDY    30  23  74 W9        29.38R WCI  22
PILOT MOUND      N/A     19  16  86 SW7         N/A  WCI  10
THE PAS        CLOUDY    34  27  75 W8        29.39F
THOMPSON       CLOUDY    32  28  86 W8        29.31R WCI  25
WINNIPEG       PTCLDY    21  16  79 S13       29.56F WCI   9
LYNN LAKE      MOCLDY    30  30 100 W5        29.29R
CHURCHILL      LGT SNOW  18  16  93 N28G33    29.17R DRFTSNOWWCI  -1
GILLAM         CLOUDY    36  32  87 W13G22    29.21R
$$
                ***SASKATCHEWAN***

CITY           SKY/WX    TMP DP  RH WIND       PRES   REMARKS
ESTEVAN        MOCLDY    28  25  86 SW12      29.61F WCI  18
KINDERSLEY     CLEAR     32  28  86 S13       29.42S WCI  22
LLOYDMINSTER   PTCLDY    30  28  93 S6        29.34R WCI  24
PRINCE ALBERT  MOCLDY    28  27  93 VRB2      29.39F
REGINA         CLEAR     32  27  80 SW12      29.53F WCI  23
YORKTON        CLEAR     28  27  93 S9        29.47F WC1F1C2F2C3F3C4F4C5F5C6F6C7F7C8F8C9F9CaFaCbFbCcFcCdFdCe!



USA.gov is the U.S. government's official web portal to all federal, state and local government web resources and services.